Location: Unspecified
(49.9820°N, 20.4363°E)
Time: 00:20:59
(UTC+02:00)

ISS - Pass Details

Date: 20 May 2018
Orbit: 402 x 407 km, 51.6° (Epoch: 24 May)

Event Time Altitude Azimuth Distance (km) Brightness Sun altitude
Exits shadow 01:38:52 - 280° (W) 1,605 -0.9 -18.7°
Reaches altitude 10° 01:39:13 10° 281° (W) 1,459 -1.1 -18.7°
Maximum altitude 01:42:28 63° 3° (N) 454 -3.4 -18.5°
Drops below altitude 10° 01:45:43 10° 86° (E) 1,458 -0.8 -18.4°
Sets 01:47:48 0° 90° (E) 2,317 0.3 -18.2°
